This demonstration page uses our WeatherBlox Daily Observations layout. Learn more.

38.88101, -77.10428

Hourly Observations for January 25, 2016

Temp ( °F °C ) Dew Point ( °F °C ) Humidity (%) Winds ( mph kmh ) Pressure ( in mb ) Visibility ( mi km ) Precip ( " mm )
12:52 am 00:52 Hazy 21 -6 18 -8 86 86 SSW 3 6 30.18 1022 6 9.656064 0 0
1:52 am 01:52 Clear with Mist and Fog 19 -7 18 -8 93 93 N 3 6 30.21 1023 6 9.656064 0 0
2:52 am 02:52 Clear with Mist and Fog 19 -7 16 -9 86 86 Calm 30.21 1023 6 9.656064 0 0
3:52 am 03:52 Clear with Mist and Fog 19 -7 16 -9 86 86 N 3 6 30.21 1023 6 9.656064 0 0
4:52 am 04:52 Clear with Mist and Fog 19 -7 18 -8 93 93 Calm 30.21 1023 6 9.656064 0 0
5:52 am 05:52 Mostly Cloudy with Mist and Fog 18 -8 16 -9 93 93 NE 5 7 30.24 1024 6 9.656064 0 0
6:52 am 06:52 Mostly Cloudy 18 -8 16 -9 93 93 NNE 5 7 30.24 1024 7 11.265408 0 0
7:52 am 07:52 Mostly Cloudy with Mist and Fog 18 -8 16 -9 93 93 N 3 6 30.27 1025 6 9.656064 0 0
8:52 am 08:52 Cloudy 21 -6 16 -9 80 80 NE 7 11 30.3 1026 7 11.265408 0 0
9:52 am 09:52 Cloudy 27 -3 18 -8 69 69 N 3 6 30.33 1027 7 11.265408 0 0
10:52 am 10:52 Cloudy 30 -1 19 -7 64 64 Calm 30.33 1027 10 16.09344 0 0
11:52 am 11:52 Cloudy 36 2 19 -7 52 52 Calm 30.3 1026 10 16.09344 0 0
12:52 pm 12:52 Cloudy 37 3 21 -6 52 52 Calm 30.27 1025 10 16.09344 0 0
1:52 pm 13:52 Cloudy 39 4 19 -7 45 45 Calm 30.24 1024 10 16.09344 0 0
2:52 pm 14:52 Mostly Cloudy 39 4 21 -6 48 48 Calm 30.24 1024 10 16.09344 0 0
3:52 pm 15:52 Mostly Cloudy 41 5 19 -7 42 42 Calm 30.24 1024 10 16.09344 0 0
4:52 pm 16:52 Mostly Cloudy 36 2 21 -6 56 56 Calm 30.24 1024 10 16.09344 0 0
5:52 pm 17:52 Mostly Cloudy 36 2 25 -4 65 65 ESE 3 6 30.27 1025 10 16.09344 0 0
6:52 pm 18:52 Mostly Cloudy 32 0 25 -4 75 75 Calm 30.27 1025 10 16.09344 0 0
7:52 pm 19:52 Mostly Cloudy 34 1 27 -3 75 75 Calm 30.27 1025 10 16.09344 0 0
8:52 pm 20:52 Cloudy 30 -1 27 -3 86 86 S 3 6 30.24 1024 10 16.09344 0 0
9:52 pm 21:52 Cloudy 34 1 27 -3 75 75 SSW 5 7 30.24 1024 9 14.484096 0 0
10:52 pm 22:52 Cloudy 36 2 25 -4 65 65 WSW 3 6 30.21 1023 9 14.484096 0 0
11:52 pm 23:52 Mostly Cloudy 36 2 27 -3 70 70 WSW 6 9 30.21 1023 10 16.09344 0 0

Powered by AerisWeather